timestamp,wind_dir_avg,wind_spd_avg,wind_spd_max_dir,wind_spd_gust,battery_voltage,lat,long
2019-11-30 00:04:01+00:00,48.0,7.06,46.0,7.78,12.33,47.59359,-54.27349
2019-11-30 00:14:01+00:00,50.0,8.76,54.0,9.58,12.33,47.59359,-54.27349
2019-11-30 00:24:01+00:00,45.0,10.36,48.0,11.35,12.33,47.59359,-54.27349
2019-11-30 00:34:01+00:00,37.0,9.73,34.0,10.85,12.33,47.59359,-54.27349
2019-11-30 00:44:01+00:00,31.0,8.12,29.0,8.99,12.33,47.59359,-54.27349
2019-11-30 00:54:01+00:00,42.0,10.19,44.0,10.91,12.33,47.59359,-54.27349
2019-11-30 01:04:01+00:00,40.0,9.84,40.0,10.75,12.33,47.59359,-54.27349
2019-11-30 01:14:01+00:00,54.0,9.64,55.0,10.41,12.33,47.59359,-54.27349
2019-11-30 01:24:01+00:00,60.0,11.03,60.0,13.03,12.33,47.59359,-54.27349
2019-11-30 01:34:01+00:00,55.0,12.47,57.0,14.93,12.33,47.59359,-54.27349
2019-11-30 01:44:01+00:00,53.0,12.45,56.0,13.83,12.33,47.59359,-54.27349
2019-11-30 01:54:01+00:00,57.0,10.77,52.0,12.75,12.33,47.59359,-54.27349
2019-11-30 02:04:01+00:00,49.0,11.51,53.0,12.79,12.33,47.59359,-54.27349
2019-11-30 02:14:01+00:00,55.0,10.23,57.0,11.53,12.33,47.59359,-54.27349
2019-11-30 02:24:01+00:00,60.0,9.95,64.0,11.6,12.33,47.59359,-54.27349
2019-11-30 02:34:01+00:00,68.0,10.44,71.0,11.82,12.33,47.59359,-54.27349
2019-11-30 02:44:01+00:00,59.0,10.39,58.0,12.26,12.33,47.59359,-54.27349
2019-11-30 02:54:01+00:00,56.0,10.56,60.0,11.57,12.33,47.59359,-54.27349
2019-11-30 03:04:01+00:00,59.0,9.98,60.0,10.73,12.33,47.59359,-54.27349
2019-11-30 03:14:01+00:00,55.0,11.85,55.0,12.93,12.33,47.59359,-54.27349
2019-11-30 03:24:01+00:00,54.0,11.16,55.0,12.23,12.33,47.59359,-54.27349
2019-11-30 03:34:01+00:00,54.0,10.62,56.0,11.9,12.33,47.59359,-54.27349
2019-11-30 03:44:01+00:00,54.0,9.37,49.0,10.86,12.33,47.59359,-54.27349
2019-11-30 03:54:01+00:00,55.0,10.06,66.0,13.48,12.33,47.59359,-54.27349
2019-11-30 04:04:01+00:00,59.0,8.96,70.0,10.84,12.33,47.59359,-54.27349
2019-11-30 04:14:01+00:00,53.0,10.04,55.0,11.38,12.33,47.59359,-54.27349
2019-11-30 04:24:01+00:00,55.0,10.58,57.0,12.08,12.33,47.59359,-54.27349
2019-11-30 04:34:01+00:00,53.0,10.28,54.0,11.38,12.33,47.59359,-54.27349
2019-11-30 04:44:01+00:00,62.0,9.56,63.0,10.47,12.33,47.59359,-54.27349
2019-11-30 04:54:01+00:00,56.0,10.05,52.0,11.56,12.33,47.59359,-54.27349
2019-11-30 05:04:01+00:00,55.0,10.91,54.0,12.63,12.33,47.59359,-54.27349
2019-11-30 05:14:01+00:00,55.0,11.0,53.0,11.91,12.33,47.59359,-54.27349
2019-11-30 05:24:01+00:00,61.0,11.45,56.0,12.71,12.33,47.59359,-54.27349
2019-11-30 05:34:01+00:00,56.0,11.28,56.0,12.49,12.33,47.59359,-54.27349
2019-11-30 05:44:01+00:00,53.0,10.31,54.0,11.95,12.33,47.59359,-54.27349
2019-11-30 05:54:01+00:00,53.0,10.44,54.0,11.73,12.33,47.59359,-54.27349
2019-11-30 06:04:01+00:00,52.0,10.21,49.0,11.76,12.33,47.59359,-54.27349
2019-11-30 06:14:01+00:00,53.0,12.13,54.0,13.19,12.33,47.59359,-54.27349
2019-11-30 06:24:01+00:00,52.0,11.14,55.0,12.65,12.33,47.59359,-54.27349
2019-11-30 06:34:01+00:00,52.0,11.08,49.0,12.99,12.33,47.59359,-54.27349
2019-11-30 06:44:01+00:00,58.0,12.17,51.0,14.61,12.33,47.59359,-54.27349
2019-11-30 06:54:01+00:00,62.0,10.6,64.0,11.78,12.33,47.59359,-54.27349
2019-11-30 07:04:01+00:00,58.0,9.71,62.0,10.98,12.33,47.59359,-54.27349
2019-11-30 07:14:01+00:00,56.0,10.78,54.0,12.21,12.33,47.59359,-54.27349
2019-11-30 07:24:01+00:00,54.0,10.67,52.0,11.99,12.33,47.59359,-54.27349
2019-11-30 07:34:01+00:00,56.0,10.98,57.0,12.24,12.33,47.59359,-54.27349
2019-11-30 07:44:01+00:00,61.0,11.08,59.0,12.77,12.33,47.59359,-54.27349
2019-11-30 07:54:01+00:00,56.0,11.83,57.0,12.77,12.33,47.59359,-54.27349
2019-11-30 08:04:01+00:00,58.0,11.76,53.0,13.9,12.33,47.59359,-54.27349
2019-11-30 08:14:01+00:00,58.0,11.81,58.0,13.02,12.33,47.59359,-54.27349
2019-11-30 08:24:01+00:00,59.0,8.72,56.0,10.07,12.33,47.59359,-54.27349
2019-11-30 08:34:01+00:00,51.0,9.88,48.0,11.73,12.33,47.59359,-54.27349
2019-11-30 08:44:01+00:00,43.0,10.27,40.0,11.41,12.33,47.59359,-54.27349
2019-11-30 08:54:01+00:00,49.0,10.95,51.0,12.07,12.33,47.59359,-54.27349
2019-11-30 09:04:01+00:00,48.0,11.7,47.0,12.89,12.33,47.59359,-54.27349
2019-11-30 09:14:01+00:00,46.0,9.64,44.0,10.83,12.33,47.59359,-54.27349
2019-11-30 09:24:01+00:00,54.0,10.58,50.0,11.72,12.33,47.59359,-54.27349
2019-11-30 09:34:01+00:00,55.0,10.36,56.0,12.29,12.33,47.59359,-54.27349
2019-11-30 09:44:01+00:00,51.0,11.76,53.0,12.61,12.33,47.59359,-54.27349
2019-11-30 09:54:01+00:00,53.0,10.96,54.0,12.35,12.33,47.59359,-54.27349
2019-11-30 10:04:01+00:00,52.0,10.16,55.0,12.38,12.33,47.59359,-54.27349
2019-11-30 10:14:01+00:00,55.0,11.08,49.0,12.16,12.33,47.59359,-54.27349
2019-11-30 10:24:01+00:00,54.0,11.66,55.0,13.02,12.33,47.59359,-54.27349
2019-11-30 10:34:01+00:00,57.0,10.31,57.0,11.84,12.33,47.59359,-54.27349
2019-11-30 10:44:01+00:00,61.0,11.57,61.0,13.04,12.33,47.59359,-54.27349
2019-11-30 10:54:01+00:00,54.0,9.48,52.0,10.54,12.33,47.59359,-54.27349
2019-11-30 11:04:01+00:00,51.0,11.82,48.0,13.62,12.33,47.59359,-54.27349
2019-11-30 11:14:01+00:00,48.0,12.81,50.0,15.09,12.33,47.59359,-54.27349
2019-11-30 11:24:01+00:00,50.0,13.39,49.0,14.47,12.33,47.59359,-54.27349
2019-11-30 11:34:01+00:00,49.0,13.13,52.0,15.42,12.33,47.59359,-54.27349
2019-11-30 11:44:01+00:00,48.0,12.63,50.0,13.72,12.33,47.59359,-54.27349
2019-11-30 11:54:01+00:00,44.0,9.34,43.0,11.2,12.33,47.59359,-54.27349
2019-11-30 12:04:01+00:00,54.0,10.17,54.0,11.26,12.33,47.59359,-54.27349
2019-11-30 12:14:01+00:00,54.0,8.75,54.0,10.27,12.41,47.59359,-54.27349
2019-11-30 12:24:01+00:00,61.0,7.35,62.0,8.12,12.41,47.59359,-54.27349
2019-11-30 12:34:01+00:00,43.0,6.35,40.0,7.44,12.41,47.59359,-54.27349
2019-11-30 12:44:01+00:00,50.0,8.04,51.0,8.91,12.41,47.59359,-54.27349
2019-11-30 12:54:01+00:00,51.0,8.03,53.0,8.97,12.41,47.59359,-54.27349
2019-11-30 13:04:01+00:00,52.0,7.7,47.0,8.95,12.41,47.59359,-54.27349
2019-11-30 14:14:01+00:00,49.0,6.4,47.0,6.91,12.57,47.59359,-54.27349
2019-11-30 14:24:01+00:00,46.0,7.25,51.0,8.87,12.57,47.59359,-54.27349
2019-11-30 14:34:01+00:00,40.0,6.54,39.0,7.27,12.57,47.59359,-54.27349
2019-11-30 14:44:01+00:00,25.0,5.36,32.0,6.49,12.57,47.59359,-54.27349
2019-11-30 14:54:01+00:00,26.0,5.61,26.0,6.54,12.57,47.59359,-54.27349
2019-11-30 15:04:01+00:00,31.0,6.76,34.0,8.02,12.57,47.59359,-54.27349
2019-11-30 15:14:01+00:00,14.0,6.8,11.0,7.62,12.49,47.59359,-54.27349
2019-11-30 15:24:01+00:00,14.0,5.61,10.0,6.24,12.49,47.59359,-54.27349
2019-11-30 15:34:01+00:00,15.0,5.71,13.0,7.01,12.49,47.59359,-54.27349
2019-11-30 15:44:01+00:00,16.0,5.08,17.0,5.65,12.49,47.59359,-54.27349
2019-11-30 15:54:01+00:00,10.0,5.68,9.0,6.29,12.49,47.59359,-54.27349
2019-11-30 16:04:01+00:00,13.0,6.15,11.0,6.67,12.49,47.59359,-54.27349
2019-11-30 16:14:01+00:00,17.0,5.88,14.0,6.76,12.57,47.59359,-54.27349
2019-11-30 16:24:01+00:00,17.0,6.58,19.0,7.39,12.57,47.59359,-54.27349
2019-11-30 16:34:01+00:00,23.0,6.38,22.0,7.63,12.57,47.59359,-54.27349
2019-11-30 16:44:01+00:00,26.0,5.89,22.0,6.94,12.57,47.59359,-54.27349
2019-11-30 16:54:01+00:00,26.0,8.03,26.0,9.12,12.57,47.59359,-54.27349
2019-11-30 17:04:01+00:00,27.0,8.24,26.0,8.91,12.57,47.59359,-54.27349
2019-11-30 17:14:01+00:00,24.0,6.86,26.0,8.06,12.49,47.59359,-54.27349
2019-11-30 17:24:01+00:00,21.0,6.73,21.0,7.83,12.49,47.59359,-54.27349
2019-11-30 17:34:01+00:00,22.0,7.33,20.0,8.51,12.49,47.59359,-54.27349
2019-11-30 17:44:01+00:00,20.0,7.05,25.0,8.15,12.49,47.59359,-54.27349
2019-11-30 17:54:01+00:00,30.0,7.32,28.0,8.37,12.49,47.59359,-54.27349
2019-11-30 18:04:01+00:00,31.0,7.51,26.0,8.38,12.49,47.59359,-54.27349
2019-11-30 18:14:01+00:00,31.0,7.4,34.0,7.93,12.49,47.59359,-54.27349
2019-11-30 18:24:01+00:00,28.0,6.85,27.0,8.43,12.49,47.59359,-54.27349
2019-11-30 18:34:01+00:00,27.0,6.3,25.0,7.9,12.49,47.59359,-54.27349
2019-11-30 18:44:01+00:00,25.0,5.79,22.0,6.47,12.49,47.59359,-54.27349
2019-11-30 18:54:01+00:00,19.0,6.31,18.0,7.6,12.49,47.59359,-54.27349
2019-11-30 19:04:01+00:00,29.0,5.44,34.0,7.55,12.49,47.59359,-54.27349
2019-11-30 20:14:01+00:00,12.0,7.14,2.0,8.82,12.33,47.59359,-54.27349
2019-11-30 20:24:01+00:00,358.0,6.39,353.0,7.23,12.33,47.59359,-54.27349
2019-11-30 20:34:01+00:00,351.0,6.97,353.0,7.83,12.33,47.59359,-54.27349
2019-11-30 20:44:01+00:00,0.0,6.16,359.0,6.83,12.33,47.59359,-54.27349
2019-11-30 20:54:01+00:00,0.0,5.94,0.0,7.13,12.33,47.59359,-54.27349
2019-11-30 21:04:01+00:00,358.0,7.31,1.0,8.27,12.33,47.59359,-54.27349
2019-11-30 21:14:01+00:00,358.0,6.2,359.0,7.11,12.33,47.59359,-54.27349
2019-11-30 21:24:01+00:00,353.0,6.83,350.0,7.9,12.33,47.59359,-54.27349
2019-11-30 21:34:01+00:00,353.0,6.45,350.0,7.13,12.33,47.59359,-54.27349
2019-11-30 21:44:01+00:00,354.0,6.1,354.0,6.94,12.33,47.59359,-54.27349
2019-11-30 21:54:01+00:00,351.0,6.89,350.0,8.7,12.33,47.59359,-54.27349
2019-11-30 22:04:01+00:00,348.0,6.92,345.0,7.8,12.33,47.59359,-54.27349
2019-11-30 22:14:01+00:00,347.0,5.99,347.0,6.86,12.33,47.59359,-54.27349
2019-11-30 22:24:01+00:00,349.0,6.12,347.0,6.89,12.33,47.59359,-54.27349
2019-11-30 22:34:01+00:00,345.0,7.65,340.0,8.72,12.33,47.59359,-54.27349
2019-11-30 22:44:01+00:00,339.0,7.81,339.0,8.81,12.33,47.59359,-54.27349
2019-11-30 22:54:01+00:00,332.0,6.84,335.0,7.95,12.33,47.59359,-54.27349
2019-11-30 23:04:01+00:00,339.0,7.27,345.0,8.66,12.33,47.59359,-54.27349
2019-11-30 23:14:01+00:00,344.0,7.77,342.0,9.5,12.33,47.59359,-54.27349
2019-11-30 23:24:01+00:00,351.0,7.78,349.0,9.12,12.33,47.59359,-54.27349
2019-11-30 23:34:01+00:00,342.0,8.16,340.0,9.46,12.33,47.59359,-54.27349
2019-11-30 23:44:01+00:00,331.0,7.37,333.0,8.48,12.33,47.59359,-54.27349
2019-11-30 23:54:01+00:00,334.0,7.41,331.0,8.47,12.33,47.59359,-54.27349
